N3NDE Weather Reports


Display with metric or nautical units.
time (UTC)temp
F
wind
direction
speed
MPH
gust
MPH
rain 1hr
in
rain 24hr
in
rain mn
in
humidity
%
barometer
mb
20260504202510 65 105 4.0 4.0 0.00 0.00 0.00 31 1011.2
20260504202007 66 103 2.0 3.0 0.00 0.00 0.00 31 1011.3
20260504201504 66 39 2.0 3.0 0.00 0.00 0.00 29 1011.2
20260504201002 66 99 5.0 7.0 0.00 0.00 0.00 29 1011.2
20260504200458 66 106 5.0 6.0 0.00 0.00 0.00 30 1011.3
20260504195955 66 58 3.0 4.0 0.00 0.00 0.00 30 1011.5
20260504195451 65 78 4.0 7.0 0.00 0.00 0.00 29 1011.2
20260504194948 64 90 1.0 2.0 0.00 0.00 0.00 30 1011.3
20260504194444 64 131 3.0 4.0 0.00 0.00 0.00 31 1011.5
20260504193940 64 78 2.0 2.0 0.00 0.00 0.00 32 1011.3
20260504193437 63 324 1.0 2.0 0.00 0.00 0.00 32 1011.5
20260504192936 63 195 3.0 6.0 0.00 0.00 0.00 32 1011.7
20260504192432 63 184 5.0 7.0 0.00 0.00 0.00 33 1011.3
20260504191931 63 249 4.0 4.0 0.00 0.00 0.00 32 1011.3
20260504191429 63 260 5.0 6.0 0.00 0.00 0.00 32 1011.5
20260504190924 63 254 6.0 8.0 0.00 0.00 0.00 32 1011.5
20260504190420 63 242 5.0 6.0 0.00 0.00 0.00 34 1011.7
20260504185917 63 228 6.0 7.0 0.00 0.00 0.00 33 1011.6
20260504185414 63 293 4.0 4.0 0.00 0.00 0.00 33 1011.7
20260504184910 63 257 6.0 8.0 0.00 0.00 0.00 32 1011.6
20260504184406 63 283 6.0 8.0 0.00 0.00 0.00 34 1011.6
20260504183902 63 265 6.0 9.0 0.00 0.00 0.00 34 1011.3
20260504183400 64 273 9.0 11.0 0.00 0.00 0.00 33 1011.5
20260504182857 65 286 8.0 9.0 0.00 0.00 0.00 33 1011.9
20260504182354 66 255 9.0 11.0 0.00 0.00 0.00 33 1011.7
20260504181851 69 31 2.0 2.0 0.00 0.00 0.00 25 1011.3
20260504181348 69 307 3.0 3.0 0.00 0.00 0.00 25 1011.6
20260504180847 69 297 5.0 6.0 0.00 0.00 0.00 27 1011.8
20260504180345 69 341 2.0 3.0 0.00 0.00 0.00 28 1011.7
20260504175843 69 235 4.0 6.0 0.00 0.00 0.00 29 1011.7
20260504175339 68 268 3.0 4.0 0.00 0.00 0.00 30 1011.8
20260504174838 68 276 4.0 6.0 0.00 0.00 0.00 27 1011.8
20260504174335 68 25 1.0 1.0 0.00 0.00 0.00 29 1012.1
20260504173832 67 252 2.0 2.0 0.00 0.00 0.00 29 1012.3
20260504173328 66 321 1.0 2.0 0.00 0.00 0.00 33 1012.1
20260504172826 66 302 3.0 3.0 0.00 0.00 0.00 31 1012.3
20260504172322 66 187 4.0 6.0 0.00 0.00 0.00 33 1012.3
20260504171818 67 249 5.0 6.0 0.00 0.00 0.00 32 1012.3
20260504171315 67 269 2.0 3.0 0.00 0.00 0.00 34 1012.3
20260504170812 65 31 0.0 0.0 0.00 0.00 0.00 36 1012.4
20260504170309 65 301 3.0 4.0 0.00 0.00 0.00 35 1012.8
20260504160227 61 286 3.0 3.0 0.00 0.00 0.00 38 1012.9
20260504150653 55 23 0.0 0.0 0.00 0.00 0.00 40 1013.5
20260504150150 54 23 1.0 1.0 0.00 0.00 0.00 42 1013.6
20260504141119 51 22 0.0 1.0 0.00 0.00 0.00 42 1013.5
20260504140616 51 54 0.0 0.0 0.00 0.00 0.00 41 1013.9
20260504140111 51 38 0.0 0.0 0.00 0.00 0.00 40 1013.7
20260504130540 45 42 0.0 0.0 0.00 0.00 0.00 49 1013.6
20260504110427 43 46 1.0 1.0 0.00 0.00 0.00 49 1013.9
20260504100344 44 47 2.0 3.0 0.00 0.00 0.00 44 1013.4
20260504081737 45 51 2.0 2.0 0.00 0.00 0.00 42 1013.3
20260504081233 45 50 1.0 1.0 0.00 0.00 0.00 42 1013.3
20260504080730 45 50 1.0 1.0 0.00 0.00 0.00 42 1013.1
20260504080226 45 50 1.0 1.0 0.00 0.00 0.00 42 1013.6
20260504070154 47 50 0.0 0.0 0.00 0.00 0.00 37 1013.4
20260504060120 49 49 2.0 3.0 0.00 0.00 0.00 35 1013.5
20260504050548 52 50 2.0 2.0 0.00 0.00 0.00 32 1013.9
20260504045541 52 43 2.0 2.0 0.00 0.00 0.00 33 1013.9
20260504045037 53 39 2.0 2.0 0.00 0.00 0.00 32 1013.9
20260504044535 53 54 2.0 3.0 0.00 0.00 0.00 32 1014.1
20260504044031 53 67 4.0 6.0 0.00 0.00 0.00 31 1013.9
20260504043528 52 56 0.0 2.0 0.00 0.00 0.00 32 1013.9
20260504043026 52 52 1.0 1.0 0.00 0.00 0.00 33 1014.0
20260504042523 52 45 2.0 2.0 0.00 0.00 0.00 32 1014.1
20260504042020 53 41 2.0 2.0 0.00 0.00 0.00 33 1014.1
20260504041515 53 41 0.0 0.0 0.00 0.00 0.00 32 1014.0
20260504041012 54 39 2.0 2.0 0.00 0.00 0.00 31 1013.7
20260504040509 55 32 2.0 2.0 0.00 0.00 0.00 30 1014.0
20260504040006 55 44 2.0 3.0 0.00 0.00 0.00 29 1013.7
20260504035503 55 48 2.0 4.0 0.00 0.00 0.00 29 1013.6
20260504034959 55 49 0.0 1.0 0.00 0.00 0.00 29 1013.6
20260504034457 55 50 4.0 6.0 0.00 0.00 0.00 29 1013.4
20260504033954 55 46 2.0 3.0 0.00 0.00 0.00 29 1013.7
20260504033451 56 33 0.0 1.0 0.00 0.00 0.00 29 1013.5
20260504032949 56 64 3.0 6.0 0.00 0.00 0.00 29 1013.5
20260504032445 56 66 4.0 6.0 0.00 0.00 0.00 29 1013.5
20260504031942 56 57 5.0 6.0 0.00 0.00 0.00 29 1013.6
20260504031439 56 44 6.0 7.0 0.00 0.00 0.00 28 1013.5
20260504030936 55 39 2.0 3.0 0.00 0.00 0.00 30 1013.7
20260504030433 56 35 1.0 3.0 0.00 0.00 0.00 29 1013.9
20260504025929 56 40 3.0 3.0 0.00 0.00 0.00 28 1013.7
20260504025426 57 41 3.0 3.0 0.00 0.00 0.00 28 1013.7
20260504024923 57 42 2.0 3.0 0.00 0.00 0.00 27 1013.9
20260504024420 57 41 1.0 1.0 0.00 0.00 0.00 27 1013.7
20260504023917 57 52 0.0 1.0 0.00 0.00 0.00 27 1013.6
20260504023413 57 40 2.0 3.0 0.00 0.00 0.00 28 1013.3
20260504022909 57 38 2.0 2.0 0.00 0.00 0.00 30 1013.4
20260504022406 59 43 0.0 0.0 0.00 0.00 0.00 24 1013.6
20260504021902 60 45 0.0 0.0 0.00 0.00 0.00 23 1013.6
20260504021359 59 59 2.0 3.0 0.00 0.00 0.00 23 1013.5
20260504020856 60 45 0.0 0.0 0.00 0.00 0.00 23 1013.7
20260504020353 60 46 1.0 1.0 0.00 0.00 0.00 24 1013.4
20260504015849 61 53 0.0 0.0 0.00 0.00 0.00 25 1013.5
20260504015345 62 62 1.0 1.0 0.00 0.00 0.00 24 1013.7
20260504014842 62 53 1.0 1.0 0.00 0.00 0.00 23 1013.7
20260504014337 62 36 0.0 0.0 0.00 0.00 0.00 24 1013.6
20260504013836 62 47 0.0 0.0 0.00 0.00 0.00 22 1013.9
20260504013333 63 57 1.0 2.0 0.00 0.00 0.00 23 1013.7
20260504012830 63 46 0.0 0.0 0.00 0.00 0.00 23 1013.7
20260504012327 64 53 0.0 0.0 0.00 0.00 0.00 22 1014.0
20260504011825 64 49 0.0 0.0 0.00 0.00 0.00 24 1013.7
20260504011321 64 48 0.0 0.0 0.00 0.00 0.00 24 1013.6
20260504010817 65 47 0.0 0.0 0.00 0.00 0.00 24 1013.6
20260504010313 65 48 0.0 0.0 0.00 0.00 0.00 21 1013.7
20260504005809 65 45 0.0 0.0 0.00 0.00 0.00 22 1013.9
20260504005306 65 51 0.0 0.0 0.00 0.00 0.00 19 1013.9
20260504004804 66 48 0.0 0.0 0.00 0.00 0.00 23 1014.0
20260504004301 66 48 0.0 0.0 0.00 0.00 0.00 22 1014.1
20260504003758 66 48 0.0 0.0 0.00 0.00 0.00 19 1014.0
20260504003255 66 53 0.0 0.0 0.00 0.00 0.00 18 1014.2
20260504002751 66 49 0.0 0.0 0.00 0.00 0.00 18 1014.2
20260504002248 66 87 0.0 0.0 0.00 0.00 0.00 17 1014.1
20260504001746 66 330 1.0 2.0 0.00 0.00 0.00 18 1014.0
20260504001243 67 32 0.0 1.0 0.00 0.00 0.00 20 1014.2
20260504000739 67 9 0.0 1.0 0.00 0.00 0.00 18 1014.1
20260504000236 67 323 1.0 2.0 0.00 0.00 0.00 17 1014.1
20260503235735 67 52 1.0 2.0 0.00 0.00 0.00 16 1014.2
20260503235231 67 195 2.0 2.0 0.00 0.00 0.00 16 1014.2
20260503234729 67 320 0.0 1.0 0.00 0.00 0.00 18 1014.1
20260503234227 67 341 2.0 2.0 0.00 0.00 0.00 18 1014.2
20260503233724 68 253 3.0 3.0 0.00 0.00 0.00 17 1014.6
20260503233219 68 258 3.0 3.0 0.00 0.00 0.00 18 1014.6
20260503232717 68 51 1.0 2.0 0.00 0.00 0.00 18 1014.2
20260503232214 68 82 2.0 4.0 0.00 0.00 0.00 18 1014.6
20260503231712 68 238 1.0 2.0 0.00 0.00 0.00 18 1014.6
20260503231208 68 229 4.0 6.0 0.00 0.00 0.00 16 1014.6
20260503230705 68 210 5.0 6.0 0.00 0.00 0.00 16 1014.7
20260503230202 68 101 2.0 2.0 0.00 0.00 0.00 16 1014.7
20260503225659 69 163 2.0 2.0 0.00 0.00 0.00 16 1014.7
20260503225159 68 44 0.0 0.0 0.00 0.00 0.00 16 1014.7
20260503224657 69 259 8.0 9.0 0.00 0.00 0.00 16 1014.8
20260503224155 69 231 4.0 6.0 0.00 0.00 0.00 17 1014.8
20260503223652 69 220 6.0 7.0 0.00 0.00 0.00 16 1014.8
20260503223149 70 295 4.0 4.0 0.00 0.00 0.00 16 1015.1
20260503222646 70 289 2.0 3.0 0.00 0.00 0.00 16 1014.8
20260503222143 70 336 2.0 3.0 0.00 0.00 0.00 17 1015.1
20260503221642 70 24 0.0 1.0 0.00 0.00 0.00 19 1015.2
20260503221139 69 224 6.0 8.0 0.00 0.00 0.00 17 1015.2
20260503220635 70 199 5.0 7.0 0.00 0.00 0.00 16 1015.2
20260503220132 70 211 5.0 6.0 0.00 0.00 0.00 18 1015.3
20260503215630 70 259 7.0 8.0 0.00 0.00 0.00 16 1015.7
20260503215126 70 328 5.0 8.0 0.00 0.00 0.00 17 1015.5
20260503214625 71 249 7.0 9.0 0.00 0.00 0.00 17 1015.4
20260503214121 70 323 1.0 1.0 0.00 0.00 0.00 18 1015.5
20260503213620 70 206 8.0 10.0 0.00 0.00 0.00 17 1015.8
20260503213116 70 266 4.0 4.0 0.00 0.00 0.00 18 1016.0
20260503212614 70 202 3.0 4.0 0.00 0.00 0.00 18 1015.8
20260503212111 70 254 6.0 8.0 0.00 0.00 0.00 16 1016.1
20260503211608 70 68 0.0 1.0 0.00 0.00 0.00 17 1015.9
20260503211103 70 4 0.0 0.0 0.00 0.00 0.00 17 1016.3
20260503210600 70 280 6.0 8.0 0.00 0.00 0.00 17 1016.1
20260503210056 69 263 7.0 8.0 0.00 0.00 0.00 17 1016.3
20260503205553 70 263 8.0 9.0 0.00 0.00 0.00 17 1016.0
20260503205049 70 233 5.0 6.0 0.00 0.00 0.00 16 1016.3
20260503204546 70 272 9.0 10.0 0.00 0.00 0.00 16 1016.4
20260503204043 70 278 8.0 9.0 0.00 0.00 0.00 16 1016.5
20260503203540 70 271 7.0 8.0 0.00 0.00 0.00 16 1016.4
20260503203037 70 182 5.0 7.0 0.00 0.00 0.00 16 1016.4